OPS 4682 DEB, 29061

Orbit data source: Space-Track

OPS 4682 DEB, 29061 is space debris in LEO originally from a launch on Sat, 03 Apr 1965 UTC launched from the Air Force Western Test Range (AFWTR). Debris objects in space refer to the collection of defunct objects orbiting the Earth. Examples of debris include non-operational satellites, rocket bodies, and fragments generated from explosions, collisions, or faulty payload assembly.

Loading next visibility...
Identifier
29061, 1965-027BL
Orbit
LEO
Country
Flag of USUS
Related business
Manufacturer
Unknown
Mission
Spacecraft
Bus & Motor
Unknown
Mass
Unknown
Launch date (UTC)
1965-04-03 (61 years ago)
Launch vehicle
Unknown
Launch site
Air Force Western Test Range (AFWTR)
Object type
Payload
Rocket body
Debris
Shape & HBR
Unknown shape, 0.1 m
Radar Cross Section
Small (<0.1 m²)

Expand to show TLE details & history
Last TLE update: 17 hours ago

TLE from 17 hours ago
0 OPS 4682 DEB
1 29061U 65027BL  26118.97989318 -.00000076  00000-0 -29890-3 0  9996
2 29061  90.2562  16.4818 0031974 350.2733 139.5737 12.94675534222039
Epoch: 2026-04-28T23:31Z
TLE epoch observation values (Epoch: 2026-04-28T23:31:02.770Z)
Latitude
50.006°
Longitude
-12.9233°
Altitude
1,309.698 km
Speed
7.198 km/s
True Right ascension
13h 07m 08s
True Declination
49° 50' 56"
Sunlit
Object was in daylight at epoch
Visualization orbit readout
Latitude
Unknown
Longitude
Unknown
Altitude
Unknown
Speed
Unknown
Apparent Right ascension
Unknown
Apparent Declination
Unknown
Sunlit
N/A
Visualization observer readout
Local Sidereal Time
23:37:54
Azimuth
Unknown
Elevation
Unknown
Doppler factor
Unknown
Orbital elements
Apogee altitude
1,304.641 km
Perigee altitude
1,255.668 km
Semi-major axis
7,658.292 km
Eccentricity
0.0032
Inclination
90.2562°
RAAN
16.4818°
Arg. of periapsis
350.2733°
True anomaly
139.81057°
Mean anomaly
139.5737°
Eccentric anomaly
139.69221°
Mean motion
3.23851 °/min
Orbital period
111.16 mins
BSTAR
-0.0002989
Loading maneuver chart data...
Computing Atmospheric mass density...
Loading historical data...
Loading historical data...
Loading historical data...
Loading historical data...
Loading historical data...
Loading historical data...
Loading historical data...

Documentation

Showing up to 5 results
|